| time (UTC) | temp C | wind direction | speed KPH | gust KPH | rain 1hr cm | rain 24hr cm | rain mn cm | humidity % | barometer mb |
| 20260504045731 | 7 | 336 | 0.0 | 0.0 | 0.00 | 0.00 | 0.00 | 87 | 985.1 |
| 20260504045152 | 7 | 344 | 0.0 | 0.0 | 0.00 | 0.00 | 0.00 | 85 | 984.7 |
| 20260504044537 | 7 | 312 | 0.0 | 0.0 | 0.00 | 0.00 | 0.00 | 85 | 985.1 |
| 20260504043915 | 7 | 331 | 0.0 | 0.0 | 0.00 | 0.00 | 0.00 | 84 | 985.1 |
| 20260504042719 | 7 | 333 | 0.0 | 0.0 | 0.00 | 0.00 | 0.00 | 85 | 984.4 |
| 20260504042142 | 6 | 340 | 0.0 | 0.0 | 0.00 | 0.00 | 0.00 | 85 | 984.4 |
| 20260504041542 | 6 | 340 | 0.0 | 0.0 | 0.00 | 0.00 | 0.00 | 84 | 984.4 |
| 20260504040949 | 6 | 340 | 0.0 | 0.0 | 0.00 | 0.00 | 0.00 | 84 | 984.4 |
| 20260504035738 | 6 | 333 | 0.0 | 0.0 | 0.00 | 0.00 | 0.00 | 85 | 984.4 |
| 20260504035142 | 6 | 336 | 0.0 | 0.0 | 0.00 | 0.00 | 0.00 | 85 | 984.7 |
| 20260504033953 | 6 | 336 | 0.0 | 0.0 | 0.00 | 0.00 | 0.00 | 84 | 984.7 |
| 20260504033342 | 6 | 333 | 0.0 | 0.0 | 0.00 | 0.00 | 0.00 | 85 | 984.7 |
| 20260504032714 | 6 | 334 | 0.0 | 0.0 | 0.00 | 0.00 | 0.00 | 84 | 984.4 |
| 20260504032125 | 6 | 326 | 0.0 | 0.0 | 0.00 | 0.00 | 0.00 | 85 | 984.0 |
| 20260504031536 | 6 | 329 | 0.0 | 0.0 | 0.00 | 0.00 | 0.00 | 85 | 984.0 |
| 20260504030952 | 6 | 331 | 0.0 | 0.0 | 0.00 | 0.00 | 0.00 | 86 | 984.4 |
| 20260504030354 | 6 | 331 | 0.0 | 0.0 | 0.00 | 0.00 | 0.00 | 85 | 984.4 |
| 20260504025115 | 7 | 331 | 0.0 | 0.0 | 0.00 | 0.00 | 0.00 | 83 | 984.7 |
| 20260504024555 | 7 | 331 | 0.0 | 0.0 | 0.00 | 0.00 | 0.00 | 82 | 984.4 |
| 20260504023317 | 7 | 331 | 0.0 | 0.0 | 0.00 | 0.00 | 0.00 | 81 | 984.0 |
| 20260504022747 | 8 | 331 | 0.0 | 0.0 | 0.00 | 0.00 | 0.00 | 80 | 984.0 |
| 20260504021538 | 8 | 329 | 0.0 | 0.0 | 0.00 | 0.00 | 0.00 | 79 | 984.0 |
| 20260504020353 | 8 | 329 | 0.0 | 0.0 | 0.00 | 0.00 | 0.00 | 76 | 984.0 |
| 20260504015734 | 8 | 323 | 0.0 | 0.0 | 0.00 | 0.00 | 0.00 | 76 | 984.0 |
| 20260504015121 | 8 | 324 | 0.0 | 0.0 | 0.00 | 0.00 | 0.00 | 77 | 984.0 |
| 20260504014530 | 8 | 329 | 0.0 | 0.0 | 0.00 | 0.00 | 0.00 | 77 | 984.4 |
| 20260504013925 | 9 | 329 | 0.0 | 0.0 | 0.00 | 0.00 | 0.00 | 77 | 984.0 |
| 20260504013334 | 9 | 329 | 0.0 | 0.0 | 0.00 | 0.00 | 0.00 | 76 | 984.0 |
| 20260504012735 | 10 | 329 | 0.0 | 0.0 | 0.00 | 0.00 | 0.00 | 73 | 984.4 |
| 20260504011522 | 10 | 329 | 0.0 | 0.0 | 0.00 | 0.00 | 0.00 | 71 | 984.0 |
| 20260504010939 | 10 | 329 | 0.0 | 0.0 | 0.00 | 0.00 | 0.00 | 69 | 984.0 |
| 20260504010354 | 11 | 330 | 0.0 | 0.0 | 0.00 | 0.00 | 0.00 | 69 | 984.0 |
| 20260504005728 | 11 | 331 | 0.0 | 0.0 | 0.00 | 0.00 | 0.00 | 70 | 984.0 |
| 20260504004531 | 11 | 329 | 0.0 | 0.0 | 0.00 | 0.00 | 0.00 | 69 | 983.7 |
| 20260504003953 | 11 | 329 | 0.0 | 0.0 | 0.00 | 0.00 | 0.00 | 68 | 984.0 |
| 20260504003337 | 11 | 329 | 0.0 | 0.0 | 0.00 | 0.00 | 0.00 | 67 | 983.7 |
| 20260504002742 | 11 | 329 | 0.0 | 0.0 | 0.00 | 0.00 | 0.00 | 68 | 984.0 |
| 20260504002127 | 12 | 329 | 0.0 | 0.0 | 0.00 | 0.00 | 0.00 | 67 | 983.7 |
| 20260504001533 | 12 | 329 | 0.0 | 0.0 | 0.00 | 0.00 | 0.00 | 63 | 983.7 |
| 20260504000928 | 12 | 331 | 0.0 | 0.0 | 0.00 | 0.00 | 0.00 | 64 | 983.7 |
| 20260504000328 | 12 | 331 | 0.0 | 0.0 | 0.00 | 0.00 | 0.00 | 57 | 984.0 |
| 20260503234521 | 13 | 329 | 0.0 | 0.0 | 0.00 | 0.00 | 0.00 | 58 | 983.7 |
| 20260503231524 | 15 | 327 | 0.0 | 0.0 | 0.00 | 0.00 | 0.00 | 53 | 984.0 |
| 20260503230953 | 15 | 323 | 0.0 | 0.0 | 0.00 | 0.00 | 0.00 | 51 | 984.0 |
| 20260503230351 | 15 | 335 | 0.0 | 0.0 | 0.00 | 0.00 | 0.00 | 41 | 984.0 |
| 20260503225724 | 15 | 335 | 0.0 | 0.0 | 0.00 | 0.00 | 0.00 | 41 | 984.0 |
| 20260503225148 | 15 | 304 | 1.6 | 3.2 | 0.00 | 0.00 | 0.00 | 38 | 984.0 |
| 20260503224527 | 15 | 336 | 0.0 | 0.0 | 0.00 | 0.00 | 0.00 | 38 | 984.4 |
| 20260503223912 | 15 | 342 | 0.0 | 0.0 | 0.00 | 0.00 | 0.00 | 41 | 984.0 |
| 20260503223351 | 15 | 333 | 1.6 | 3.2 | 0.00 | 0.00 | 0.00 | 40 | 984.0 |
| 20260503222727 | 15 | 344 | 0.0 | 0.0 | 0.00 | 0.00 | 0.00 | 39 | 984.4 |
| 20260503222144 | 15 | 312 | 1.6 | 1.6 | 0.00 | 0.00 | 0.00 | 39 | 984.4 |
| 20260503221527 | 15 | 312 | 0.0 | 0.0 | 0.00 | 0.00 | 0.00 | 43 | 984.4 |
| 20260503220909 | 15 | 328 | 0.0 | 3.2 | 0.00 | 0.00 | 0.00 | 40 | 984.4 |
| 20260503220333 | 15 | 333 | 0.0 | 4.8 | 0.00 | 0.00 | 0.00 | 36 | 984.4 |
| 20260503215723 | 15 | 132 | 6.4 | 9.7 | 0.00 | 0.00 | 0.00 | 35 | 984.4 |
| 20260503215141 | 16 | 224 | 3.2 | 11.3 | 0.00 | 0.00 | 0.00 | 34 | 984.4 |
| 20260503214519 | 16 | 351 | 0.0 | 1.6 | 0.00 | 0.00 | 0.00 | 34 | 984.4 |
| 20260503213944 | 16 | 333 | 1.6 | 6.4 | 0.00 | 0.00 | 0.00 | 37 | 984.4 |
| 20260503213328 | 16 | 213 | 8.0 | 11.3 | 0.00 | 0.00 | 0.00 | 35 | 984.4 |
| 20260503212750 | 16 | 301 | 3.2 | 4.8 | 0.00 | 0.00 | 0.00 | 38 | 984.4 |
| 20260503212128 | 16 | 6 | 3.2 | 4.8 | 0.00 | 0.00 | 0.00 | 36 | 984.4 |
| 20260503211543 | 16 | 341 | 0.0 | 3.2 | 0.00 | 0.00 | 0.00 | 37 | 984.4 |
| 20260503210933 | 15 | 255 | 6.4 | 6.4 | 0.00 | 0.00 | 0.00 | 35 | 984.4 |
| 20260503210349 | 15 | 206 | 4.8 | 9.7 | 0.00 | 0.00 | 0.00 | 38 | 984.4 |
| 20260503205719 | 16 | 223 | 3.2 | 6.4 | 0.00 | 0.00 | 0.00 | 38 | 984.4 |
| 20260503203914 | 15 | 325 | 1.6 | 6.4 | 0.00 | 0.00 | 0.00 | 35 | 984.7 |
| 20260503203343 | 15 | 254 | 3.2 | 12.9 | 0.00 | 0.00 | 0.00 | 36 | 984.7 |
| 20260503202733 | 15 | 220 | 9.7 | 14.5 | 0.00 | 0.00 | 0.00 | 35 | 985.1 |
| 20260503202127 | 16 | 9 | 1.6 | 6.4 | 0.00 | 0.00 | 0.00 | 34 | 984.7 |
| 20260503201509 | 16 | 262 | 1.6 | 3.2 | 0.00 | 0.00 | 0.00 | 38 | 985.1 |
| 20260503200953 | 15 | 204 | 6.4 | 9.7 | 0.00 | 0.00 | 0.00 | 37 | 985.1 |
| 20260503200321 | 15 | 318 | 3.2 | 4.8 | 0.00 | 0.00 | 0.00 | 38 | 985.1 |
| 20260503195119 | 15 | 43 | 3.2 | 6.4 | 0.00 | 0.00 | 0.00 | 40 | 985.7 |
| 20260503194527 | 15 | 214 | 3.2 | 6.4 | 0.00 | 0.00 | 0.00 | 41 | 985.7 |
| 20260503193935 | 15 | 216 | 6.4 | 12.9 | 0.00 | 0.00 | 0.00 | 36 | 985.7 |
| 20260503193341 | 15 | 340 | 0.0 | 1.6 | 0.00 | 0.00 | 0.00 | 42 | 985.7 |
| 20260503192753 | 15 | 181 | 9.7 | 11.3 | 0.00 | 0.00 | 0.00 | 40 | 986.1 |
| 20260503192120 | 16 | 293 | 1.6 | 3.2 | 0.00 | 0.00 | 0.00 | 37 | 986.4 |
| 20260503190909 | 16 | 230 | 3.2 | 12.9 | 0.00 | 0.00 | 0.00 | 40 | 986.4 |
| 20260503185750 | 16 | 337 | 1.6 | 6.4 | 0.00 | 0.00 | 0.00 | 36 | 986.7 |
| 20260503185141 | 15 | 337 | 0.0 | 6.4 | 0.00 | 0.00 | 0.00 | 36 | 986.4 |
| 20260503184540 | 16 | 228 | 4.8 | 11.3 | 0.00 | 0.00 | 0.00 | 37 | 986.7 |
| 20260503183353 | 16 | 279 | 4.8 | 11.3 | 0.00 | 0.00 | 0.00 | 37 | 986.7 |
| 20260503182749 | 16 | 326 | 0.0 | 3.2 | 0.00 | 0.00 | 0.00 | 37 | 987.1 |
| 20260503182146 | 16 | 226 | 3.2 | 9.7 | 0.00 | 0.00 | 0.00 | 38 | 987.1 |
| 20260503181545 | 15 | 54 | 1.6 | 6.4 | 0.00 | 0.00 | 0.00 | 38 | 987.1 |
| 20260503180335 | 15 | 230 | 4.8 | 4.8 | 0.00 | 0.00 | 0.00 | 40 | 987.4 |
| 20260503175731 | 15 | 331 | 3.2 | 14.5 | 0.00 | 0.00 | 0.00 | 38 | 987.1 |
| 20260503175123 | 15 | 253 | 3.2 | 6.4 | 0.00 | 0.00 | 0.00 | 37 | 987.1 |
| 20260503174550 | 15 | 341 | 0.0 | 3.2 | 0.00 | 0.00 | 0.00 | 39 | 987.4 |
| 20260503173918 | 13 | 355 | 3.2 | 9.7 | 0.00 | 0.00 | 0.00 | 39 | 987.4 |
| 20260503173309 | 13 | 312 | 1.6 | 4.8 | 0.00 | 0.00 | 0.00 | 41 | 987.8 |
| 20260503172730 | 14 | 0 | 1.6 | 14.5 | 0.00 | 0.00 | 0.00 | 45 | 987.4 |
| 20260503172124 | 15 | 214 | 4.8 | 9.7 | 0.00 | 0.00 | 0.00 | 40 | 987.8 |
| 20260503171538 | 15 | 2 | 1.6 | 1.6 | 0.00 | 0.00 | 0.00 | 36 | 987.8 |
| 20260503170935 | 15 | 1 | 0.0 | 3.2 | 0.00 | 0.00 | 0.00 | 39 | 987.8 |
| 20260503170347 | 14 | 318 | 3.2 | 9.7 | 0.00 | 0.00 | 0.00 | 40 | 987.8 |
| 20260503150929 | 11 | 342 | 0.0 | 11.3 | 0.00 | 0.00 | 0.00 | 50 | 989.1 |
| 20260503150317 | 12 | 200 | 4.8 | 6.4 | 0.00 | 0.00 | 0.00 | 52 | 989.1 |
| 20260503130953 | 3 | 331 | 0.0 | 1.6 | 0.00 | 0.00 | 0.00 | 97 | 989.5 |
| 20260503110340 | -1 | 333 | 0.0 | 0.0 | 0.00 | 0.00 | 0.00 | 97 | 988.4 |
| 20260503081547 | 0 | 333 | 0.0 | 0.0 | 0.00 | 0.00 | 0.00 | 96 | 987.1 |
| 20260503080949 | 0 | 333 | 0.0 | 0.0 | 0.00 | 0.00 | 0.00 | 96 | 987.1 |
| 20260503072739 | 0 | 333 | 0.0 | 0.0 | 0.00 | 0.00 | 0.00 | 96 | 986.7 |
| 20260503072130 | 1 | 333 | 0.0 | 0.0 | 0.00 | 0.00 | 0.00 | 95 | 986.7 |
| 20260503071549 | 1 | 333 | 0.0 | 0.0 | 0.00 | 0.00 | 0.00 | 96 | 986.7 |
| 20260503070936 | 1 | 333 | 0.0 | 0.0 | 0.00 | 0.00 | 0.00 | 95 | 986.7 |
| 20260503070324 | 1 | 333 | 0.0 | 0.0 | 0.00 | 0.00 | 0.00 | 95 | 986.4 |